Regional Weather Roundup
Issued by NWS

Home | Current Version | Previous Version | Graphics & Text | Print | Product List | Glossary On
Versions: 1 2 3 4 5 6 7 8 9 10 11 12 13 14 15 16 17 18 19 20 21 22 23 24 25 26 27 28 29 30 31 32 33 34 35 36 37 38 39 40 41 42 43 44 45 46 47 48 49 50
000
ASUS43 KFSD 291410
RWRSD

WEATHER ROUNDUP FOR SOUTH DAKOTA
NATIONAL WEATHER SERVICE SIOUX FALLS SD
900 AM CDT WED MAR 29 2017

NOTE: "FAIR" INDICATES FEW OR NO CLOUDS BELOW 12,000 FEET WITH NO
SIGNIFICANT WEATHER AND/OR OBSTRUCTIONS TO VISIBILITY.


SDZ001>005-009-010-012>017-291500-
NORTHWEST AND NORTH CENTRAL SOUTH DAKOTA

CITY           SKY/WX    TMP DP  RH WIND       PRES   REMARKS
BUFFALO          N/A     42  41  96 S9        30.03F
FAITH            N/A     41  41 100 MISG      30.12S
MOBRIDGE       CLOUDY    45  40  82 CALM      30.11F
$$

SDZ012>016-024>037-041>051-057-063-072>074-291500-
SOUTHWEST AND SOUTH CENTRAL SOUTH DAKOTA

CITY           SKY/WX    TMP DP  RH WIND       PRES   REMARKS
RAPID CTY ARPT CLOUDY    40  39  97 CALM      30.11S
PIERRE         CLOUDY    44  42  93 NW7       30.14S
CUSTER         SUNNY     34  31  88 CALM      30.09S
ELLSWORTH AFB  CLOUDY    39  39 100 CALM      30.10
PHILIP         CLOUDY    43  42  97 SE5       30.13S
PINE RIDGE     CLOUDY    42  41  96 CALM      30.11S
SPEARFISH      FAIR      37  36  93 CALM      30.10F
WINNER         CLOUDY    44  42  93 N7        30.12F FOG
$$

SDZ004>011-016>023-039-040-291500-
NORTHEAST SOUTH DAKOTA

CITY           SKY/WX    TMP DP  RH WIND       PRES   REMARKS
ABERDEEN       CLOUDY    40  34  79 N5        30.17R
WATERTOWN      CLOUDY    42  37  82 CALM      30.15S
BROOKINGS      CLOUDY    47  38  71 E7        30.14F
SISSETON         N/A     39  37  92 CALM      30.17S
$$

SDZ017-020-022-023-036>040-048>070-291500-
SOUTHEAST SOUTH DAKOTA

CITY           SKY/WX    TMP DP  RH WIND       PRES   REMARKS
SIOUX FALLS    CLOUDY    45  40  82 E7        30.15R
HURON          CLOUDY    44  38  79 NE3       30.15R
CHAMBERLAIN    CLOUDY    45  44  96 N5        30.12F
MITCHELL       PTSUNNY   45  40  82 E8        30.14S
YANKTON        CLOUDY    45  41  87 NE12      30.11S
$$

ABBREVIATIONS USED IN REMARKS
   TC - TEMPERATURE IN CELSIUS
  WCI - WIND CHILL INDEX
   HX - HEAT INDEX
  VSB - VISIBILITY





USA.gov is the U.S. government's official web portal to all federal, state and local government web resources and services.